Regional Weather Roundup
Issued by NWS Memphis, TN

Home | Current Version | Previous Version | Text Only | Print | Product List | Glossary On
Versions: 1 2 3 4 5 6 7 8 9 10 11 12 13 14 15 16 17 18 19 20 21 22 23 24 25 26 27 28 29 30 31 32 33 34 35 36 37 38 39 40 41 42 43 44 45 46 47 48 49 50
000
ASUS44 KMEG 180010
RWRMEG
MEMPHIS CWA HOURLY WEATHER ROUNDUP
NATIONAL WEATHER SERVICE MEMPHIS TN
600 PM CST WED DEC 17 2014

...WEST TENNESSEE...

CITY           SKY/WX    TMP DP  RH WIND       PRES   REMARKS
MEMPHIS INTL   CLOUDY    40  32  73 N8        30.25F WCI  34
6HR MIN TEMP:  40; 6HR MAX TEMP:  44;

NWS MEMPHIS      N/A     39 N/A N/A MISG        N/A
JACKSON        CLOUDY    37  30  75 N3        30.28S
6HR MIN TEMP:  37; 6HR MAX TEMP:  41;

LEXINGTON      CLEAR     36  28  75 N5        30.26R WCI  32
SAVANNAH       CLEAR     37  30  75 N3        30.26S
DYERSBURG      PTCLDY    37  19  48 CALM      30.31R
6HR MIN TEMP:  36; 6HR MAX TEMP:  39;

UNION CITY     CLEAR     34  28  80 N3        30.27S
PARIS          CLEAR     32  27  80 CALM      30.28R
HUNTINGDON     CLOUDY    33  27  79 CALM      30.28R


...EASTERN ARKANSAS...

CITY           SKY/WX    TMP DP  RH WIND       PRES   REMARKS
JONESBORO      LGT RAIN  38  31  76 E5        30.28S WCI  34
6HR MIN TEMP:  36; 6HR MAX TEMP:  39; 6HR PCP: TRACE;

WEST MEMPHIS   CLOUDY    38  33  82 NE7       30.27S WCI  33
6HR MIN TEMP:  38; 6HR MAX TEMP:  41;

BATESVILLE     CLOUDY    37  30  75 CALM      30.26S
6HR MIN TEMP:  37; 6HR MAX TEMP:  39;

NEWPORT        LGT RAIN  38  33  82 NE10      30.27F WCI  31
6HR MIN TEMP:  36; 6HR MAX TEMP:  39; 6HR PCP: TRACE;

WALNUT RIDGE   CLOUDY    37  28  70 SE3       30.28F
6HR MIN TEMP:  36; 6HR MAX TEMP:  37;

BLYTHEVILLE    MOCLDY    37  33  85 NE6       30.29F WCI  32
6HR MIN TEMP:  36; 6HR MAX TEMP:  41;

SEARCY         LGT RAIN  38  33  82 E7        30.27S WCI  33
6HR MIN TEMP:  37; 6HR MAX TEMP:  40; 6HR PCP:  0.01;

STUTTGART      CLOUDY    39  30  70 NE10      30.24F WCI  32
6HR MIN TEMP:  37; 6HR MAX TEMP:  41;

PINE BLUFF     CLOUDY    40  32  73 NE9       30.23F WCI  34
6HR MIN TEMP:  40; 6HR MAX TEMP:  42;

MONTICELLO     CLOUDY    43  34  70 NE5       30.22S
6HR MIN TEMP:  43; 6HR MAX TEMP:  48;



...NORTH MISSISSIPPI...

CITY           SKY/WX    TMP DP  RH WIND       PRES   REMARKS
TUPELO         CLOUDY    43  35  73 N8        30.25R
6HR MIN TEMP:  43; 6HR MAX TEMP:  49;

OXFORD         CLOUDY    39  34  81 NE3       30.26F
OLIVE BRANCH   CLOUDY    37  36  93 NE8       30.26F WCI  31
TUNICA         CLOUDY    39  34  81 N8        30.27F WCI  34
CLARKSDALE     CLOUDY    41  36  81 N10       30.25F
CORINTH        CLOUDY    41  34  75 CALM      30.25S
GRENADA        CLOUDY    41  37  87 CALM      30.24F
GREENWOOD      CLOUDY    43  36  76 NE5       30.22F
6HR MIN TEMP:  43; 6HR MAX TEMP:  51;

STARKVILLE     FAIR      45  37  76 CALM      30.24R
GOLDEN TRIANGL MOCLDY    43  36  75 N7        30.24R


...SOUTHEAST MISSOURI...

CITY           SKY/WX    TMP DP  RH WIND       PRES   REMARKS
WEST PLAINS    LGT RAIN  38  28  67 SE5       30.23S WCI  34
6HR MIN TEMP:  36; 6HR MAX TEMP:  40; 6HR PCP: TRACE;

POPLAR BLUFF   CLOUDY    38  28  67 S3        30.28R
6HR MIN TEMP:  36; 6HR MAX TEMP:  41;

CAPE GIRARDEAU MOCLDY    38  32  79 CALM      30.28F
6HR MIN TEMP:  36; 6HR MAX TEMP:  39;



...NORTHWEST ALABAMA...

CITY           SKY/WX    TMP DP  RH WIND       PRES   REMARKS
MUSCLE SHOALS  CLOUDY    42  34  73 CALM      30.24F
6HR MIN TEMP:  41; 6HR MAX TEMP:  47;



...MIDDLE TENNESSEE...

CITY           SKY/WX    TMP DP  RH WIND       PRES   REMARKS
NASHVILLE      MOCLDY    37  29  72 NW3       30.27R
6HR MIN TEMP:  37; 6HR MAX TEMP:  40;

CLARKSVILLE    PTCLDY    37  27  67 NW3       30.27R
6HR MIN TEMP:  35; 6HR MAX TEMP:  41;



...WESTERN KENTUCKY...

CITY           SKY/WX    TMP DP  RH WIND       PRES   REMARKS
PADUCAH        MOCLDY    36  28  73 CALM      30.28F
6HR MIN TEMP:  36; 6HR MAX TEMP:  40;

FORT CAMPBELL  PTCLDY    37  27  67 NW5       30.28R WCI  33
6HR MIN TEMP:  36; 6HR MAX TEMP:  40;



...CENTRAL ARKANSAS...

CITY           SKY/WX    TMP DP  RH WIND       PRES   REMARKS
LITTLE ROCK    CLOUDY    41  28  60 E8        30.24F
6HR MIN TEMP:  39; 6HR MAX TEMP:  41;



SKY/WX REPORTED AS FAIR MEANS FEW OR NO CLOUDS BELOW
12 THOUSAND FEET.



USA.gov is the U.S. government's official web portal to all federal, state and local government web resources and services.